Regional Weather Roundup
Issued by NWS Charleston, SC

Current Version | Previous Version | Graphics & Text | Print | Product List | Glossary On
Versions: 1 2 3 4 5 6 7 8 9 10 11 12 13 14 15 16 17 18 19 20 21 22 23 24 25 26 27 28 29 30 31 32 33 34 35 36 37 38 39 40 41 42 43 44 45 46 47 48 49 50
000 ASUS42 KCHS 281111 RWRCHS REGIONAL WEATHER ROUNDUP NATIONAL WEATHER SERVICE CHARLESTON SC 600 AM EST SAT FEB 28 2015 NOTE: "FAIR" INDICATES FEW OR NO CLOUDS BELOW 12,000 FEET WITH NO SIGNIFICANT WEATHER AND/OR OBSTRUCTIONS TO VISIBILITY. NOT ALL STATIONS ARE QUALITY CONTROLLED BY THE NATIONAL WEATHER SERVICE. USE DATA WITH CAUTION...ESPECIALLY DEWPOINT OBSERVATIONS. SCZ027-030-031-034>040-042>050-281200- ...SOUTHEAST SOUTH CAROLINA... CITY SKY/WX TMP DP RH WIND PRES REMARKS N CHARLESTON MOCLDY 38 35 89 NE10 30.52R WCI 31 WATERFRONT PRK N/A 43 N/A N/A N14 N/A MOUNT PLEASANT LGT RAIN 37 37 100 N5 30.53R WCI 34 PINOPOLIS N/A 39 34 81 NE12 30.45R WCI 32 MONCKS CORNER FAIR 37 32 81 NE7 30.54R WCI 32 SUMMERVILLE FAIR 36 36 100 CALM 30.55R BEAUFORT MCAS CLOUDY 43 36 76 NE12 30.48S BEAUFORT ARPT CLOUDY 43 39 87 NE16G22 30.48R HILTON HEAD IS NOT AVBL WALTERBORO PTSUNNY 37 36 93 NE3 30.54R ALLENDALE FAIR 39 34 81 VRB7 30.52R WCI 34 ...SOUTHERN MIDLANDS AND PEE DEE... CITY SKY/WX TMP DP RH WIND PRES REMARKS GEORGETOWN NOT AVBL KINGSTREE NOT AVBL ORANGEBURG MOCLDY 36 27 69 NE9 30.57R WCI 29 BARNWELL FAIR 37 32 81 NE9 30.55R WCI 31 AIKEN FAIR 34 32 93 NE10 30.59R WCI 26 MANNING FAIR 36 30 80 N7 30.57R WCI 30 COLUMBIA PTCLDY 35 24 64 NE9 30.60R WCI 28 SUMTER PTCLDY 31 26 78 NE13 30.57R WCI 22 FLORENCE PTCLDY 32 26 78 NE8 30.61R WCI 25 MYRTLE BEACH MOCLDY 34 28 80 N10 30.59R WCI 26 N MYRTLE BEACH PTCLDY 34 28 79 NE10 30.57R WCI 26 $$ GAZ063-065-086>088-099>101-113>116-118-119-134>141-150-281200- ...SOUTHEAST GEORGIA... CITY SKY/WX TMP DP RH WIND PRES REMARKS SAVANNAH ARPT CLOUDY 44 36 73 NE10 30.46R HUNTER AAF CLOUDY 47 39 73 NE10G18 30.42S FORT STEWART CLOUDY 46 38 73 NE8 30.43R STATESBORO MOCLDY 40 37 88 NE6 30.48R WCI 36 SYLVANIA PTSUNNY 39 37 91 E8 30.50R WCI 34 CLAXTON CLOUDY 43 37 81 NE7 30.46R ...CSRA...CENTRAL AND FAR SOUTHEAST GEORGIA... CITY SKY/WX TMP DP RH WIND PRES REMARKS THOMSON PTCLDY 36 35 99 NE6 30.60R WCI 31 AUGUSTA-BUSH PTCLDY 36 32 85 N8 30.56R WCI 30 AUGUSTA-DANIEL PTCLDY 39 29 67 NE12 30.55R WCI 32 SWAINSBORO FAIR 41 32 70 NE7 30.49R VIDALIA CLOUDY 41 36 81 NE6 30.46R EASTMAN FAIR 39 39 100 NE6 30.48R WCI 35 HAZLEHURST CLOUDY 44 38 80 NE7 30.43R ALMA CLOUDY 46 36 68 VRB6 30.42R WAYCROSS CLOUDY 50 42 74 E7 30.41R JESUP CLOUDY 50 43 76 E12 30.42S BAXLEY CLOUDY 46 37 71 NE9 30.43R BRUNSWICK CLOUDY 50 43 76 NE13G22 30.41R SAINT SIMONS CLOUDY 50 44 80 NE18G28 30.39R $$ SCZ027-028-034-036>038-045-046-048>050-GAZ119-141-281200- ...LAKE AND SUPPLEMENTAL COASTAL OBSERVATIONS... STATION/POSITION TIME TEMP WIND PRES WAVE SWELL AIR SEA DIR/SP/G HT/PER HT/PER/DIR (UTC) (F) (DEG/KT/KT) (MB) (FT/S) (FT/S/D) UPR LAKE MARION NOT AVBL WINYAH BAY NOT AVBL LAKE MURRAY 1000 34 10/ 3/ 6 1034.5R ACE BASIN NERRS NOT AVBL FORT PULASKI 1000 47 49 40/ 16/ 20 1031.1R SAPELO ISLAND 1000 49 30/ 14 1029.0S $$ ANZ835-935-AMZ111-154-330-350-352-354-370-450-454-472-281200- ...C-MAN AND BUOY OBSERVATIONS... STATION/POSITION TIME TEMP WIND PRES WAVE SWELL AIR SEA DIR/SP/G HT/PER HT/PER/DIR (UTC) (F) (DEG/KT/KT) (MB) (FT/S) (FT/S/D) BUOY 41004 1050 55 65 40/ 25/ 29 1030.9R 7/ 6 2/10 BUOY 41008 1050 52 52 30/ 21/ 27 1028.4R 6/ 6 2/110/11 FOLLY BEACH CMAN 1100 44 20/ 18/ 22 1033.3R CAPERS NEARSHORE NOT AVBL FRIPP NEARSHORE 1000 48 50/ 19/ 23 1030.0R STATION/POSITION TIME TEMP WIND PRES WAVE SWELL AIR SEA DIR/SP/G HT/PER HT/PER/DIR (UTC) (F) (DEG/KT/KT) (MB) (FT/S) (FT/S/D) 5E ST. MARYS GA 1051 53 N/A 5/ 7 2/110/12 FRYING PAN BUOY 1050 47 63 40/ 25/ 31 1033.4R 8/ 7 2/ 80/ 9 BUOY 41025 NOT AVBL CAPE LOOKOUT NC 1100 34 20/ 19/ 25 1036.8R BUOY 41002 1050 66 70 50/ 21/ 25 1028.9R 9/ 9 3/ 10/11 BUOY 41010 1020 67 70 70/ 19/ 23 1025.2R ST AUGUSTINE FL 1100 56 360/ 18/ 20 1027.1R $$

USA.gov is the U.S. government's official web portal to all federal, state and local government web resources and services.